Simultaneous Nadir Overpasses (SNOs) Predictions

Prediction of SNOs between AQUA and NPP Satellite Orbit:

Table of predicted SNOs for the next 14.0 days since TLE Epoch: 7/6/2024
Index Date (AQUA) Time (AQUA) Lat,Lon (AQUA) SZA (AQUA ) Date (NPP) Time (NPP) Lat,Lon (NPP) SZA (NPP ) Distance(km) Time Diff (sec)
1 07/06/2024 06:26:01 -81.26,-172.25 114.34 07/06/2024 06:25:06 -81.26,-172.06 114.33 3.08 55
2 07/06/2024 07:15:21 81.26, -4.47 65.65 07/06/2024 07:15:49 81.27, -4.29 65.61 3.00 28
3 07/08/2024 18:29:29 81.26,-173.10 65.95 07/08/2024 18:28:20 81.25,-173.20 66.01 1.88 69
4 07/08/2024 19:18:51 -81.26, -5.29 114.07 07/08/2024 19:19:03 -81.27, -5.17 114.09 2.14 12
5 07/11/2024 07:22:19 81.26, -6.22 66.28 07/11/2024 07:22:18 81.26, -6.38 66.30 2.71 1
6 07/13/2024 19:25:47 -81.26, -7.04 113.37 07/13/2024 19:25:31 -81.26, -6.94 113.37 1.75 16
7 07/13/2024 20:15:07 81.28, 160.99 66.59 07/13/2024 20:16:14 81.28, 161.17 66.52 2.90 67
8 07/16/2024 07:29:12 81.26, -7.72 67.02 07/16/2024 07:28:44 81.27, -7.52 67.01 3.28 28
9 07/16/2024 08:18:34 -81.28, 160.16 113.01 07/16/2024 08:19:28 -81.27, 160.17 113.05 0.30 54
10 07/18/2024 19:32:38 -81.26, -8.55 112.55 07/18/2024 19:31:58 -81.26, -8.55 112.53 0.03 40



Historial Predications of SNOs between AQUA and NPP
